This is the latest recevied weather packets stored in our database for station/object K9MWD. If no packets are shown the sender has not sent any weather packets the latest 10 day(s).
| Time | Temp. | Humidity | Pressure | Rain* | Wind** | Luminosity | Snow |
|---|---|---|---|---|---|---|---|
| 1788640170 | 37.22° C | 40% | 1011.7 hPa | 0 mm | - | 815 W/m² | - |
| 1788639865 | 36.67° C | 42% | 1011.8 hPa | 0 mm | - | 233 W/m² | - |
| 1788639560 | 37.22° C | 42% | 1012 hPa | 0 mm | - | 326 W/m² | - |
| 1788639255 | 37.22° C | 42% | 1012 hPa | 0 mm | - | 271 W/m² | - |
| 1788638955 | 36.11° C | 43% | 1012.1 hPa | 0 mm | - | 834 W/m² | - |
| 1788638651 | 36.67° C | 46% | 1012.1 hPa | 0 mm | - | 837 W/m² | - |
| 1788638349 | 36.67° C | 43% | 1012.1 hPa | 0 mm | - | 842 W/m² | - |
| 1788638045 | 36.11° C | 44% | 1012.1 hPa | 0 mm | - | 817 W/m² | - |
| 1788637740 | 35° C | 46% | 1012.2 hPa | 0 mm | - | 775 W/m² | - |
| 1788637440 | 35° C | 46% | 1012.4 hPa | 0 mm | - | 204 W/m² | - |
| 1788637140 | 36.11° C | 45% | 1012.4 hPa | 0 mm | - | 232 W/m² | - |
| 1788636834 | 36.67° C | 43% | 1012.6 hPa | 0 mm | - | 609 W/m² | - |
| 1788636530 | 36.11° C | 45% | 1012.7 hPa | 0 mm | - | 898 W/m² | - |
| 1788636226 | 36.11° C | 46% | 1012.6 hPa | 0 mm | - | 847 W/m² | - |
| 1788635925 | 36.11° C | 44% | 1012.9 hPa | 0 mm | - | 815 W/m² | - |
| 1788635624 | 36.11° C | 45% | 1012.9 hPa | 0 mm | - | 948 W/m² | - |
| 1788635323 | 35.56° C | 46% | 1012.9 hPa | 0 mm | - | 327 W/m² | - |
| 1788635023 | 35.56° C | 47% | 1013.2 hPa | 0 mm | - | 248 W/m² | - |
| 1788634721 | 35.56° C | 48% | 1013.3 hPa | 0 mm | - | 300 W/m² | - |
| 1788634417 | 35.56° C | 46% | 1013.1 hPa | 0 mm | - | 217 W/m² | - |
| 1788634116 | 36.11° C | 46% | 1013.5 hPa | 0 mm | - | 203 W/m² | - |
| 1788633815 | 35° C | 47% | 1013.4 hPa | 0 mm | - | 911 W/m² | - |
| 1788633514 | 35.56° C | 47% | 1013.4 hPa | 0 mm | - | 453 W/m² | - |
| 1788633209 | 35.56° C | 47% | 1013.7 hPa | 0 mm | - | 741 W/m² | - |
| 1788632904 | 34.44° C | 48% | 1013.6 hPa | 0 mm | - | 371 W/m² | - |
* Rain latest hour (hover to see other rain measurements)
** Current wind speed in m/s (hover to see current wind gust speed)